Location: Unspecified
(40.7945°N, 0.0000°E)
Time: 05:54:01
(UTC+00:00)

Explorer 7 - Pass Details

Date: 23 January 2021
Orbit: 484 x 677 km, 50.3° (Epoch: 07 March)

Event Time Altitude Azimuth Distance (km) Brightness Sun altitude
Rises 07:43:38 0° 293° (WNW) 2,634 9.6 3.5°
Reaches altitude 10° 07:46:12 10° 310° (NW) 1,779 8.8 4.0°
Maximum altitude 07:49:21 21° 1° (N) 1,247 8.4 4.5°
Drops below altitude 10° 07:52:39 10° 52° (NE) 1,869 9.9 5.0°
Sets 07:55:26 0° 68° (ENE) 2,810 11.0 5.5°
